Bookmark and Share
Track history (hours):
 

Baltic Betina

Last reported at 2014-Apr-23 05:33 UTC. Time now 2014-Apr-24 22:31 UTC.
Position N 59°55' E 021°36'.

Length 89 m; draft 5 m.

Type: Ship. MMSI: 215869000.

NotesDate/timePositionNaut miles runAvg speedWind from/ knotsBaromVisibWave heightAir tempDewpointWater temp
2014-Apr-23 05:33N 59°55' E 021°36'1111.0
2014-Apr-23 04:34N 59°46' E 021°21'9 9.1
2014-Apr-23 03:34N 59°39' E 021°10'25610.9
2014-Apr-22 04:07N 56°05' E 016°47'711.8
2014-Apr-22 03:34N 56°02' E 016°37'1211.8
2014-Apr-22 02:33N 55°56' E 016°19'2911.6
2014-Apr-22 00:06N 55°41' E 015°35'611.4
2014-Apr-21 23:34N 55°38' E 015°25'1111.5
2014-Apr-21 22:34N 55°33' E 015°07'1211.6
2014-Apr-21 21:34N 55°28' E 014°49'1111.1
2014-Apr-21 20:34N 55°21' E 014°34'1111.4
2014-Apr-21 19:33N 55°12' E 014°21'1110.5
2014-Apr-21 18:33N 55°11' E 014°03'1010.4
2014-Apr-21 17:33N 55°12' E 013°45'1110.8
2014-Apr-21 16:34N 55°13' E 013°26'1111.3
2014-Apr-21 15:33N 55°14' E 013°06'1111.1
2014-Apr-21 14:33N 55°16' E 012°47'9 9.1
2014-Apr-21 13:33N 55°24' E 012°39'1211.5
2014-Apr-21 12:33N 55°36' E 012°42'1111.0
2014-Apr-21 11:33N 55°46' E 012°41'1110.9
2014-Apr-21 10:34N 55°57' E 012°38'9 9.3
2014-Apr-21 09:34N 56°06' E 012°32'1111.1
2014-Apr-21 08:33N 56°11' E 012°14'1212.2
2014-Apr-21 07:33N 56°04' E 011°56'40 1.9
2014-Apr-20 11:06N 56°25' E 010°56'37 1.6
2014-Apr-19 12:31N 57°01' E 010°44'1211.5
2014-Apr-19 11:30N 57°13' E 010°42'1111.5
2014-Apr-19 10:33N 57°24' E 010°43'1212.0
2014-Apr-19 09:33N 57°36' E 010°44'1010.3
2014-Apr-19 08:33N 57°46' E 010°44'1010.4
2014-Apr-19 07:33N 57°47' E 010°25'1110.6
2014-Apr-19 06:33N 57°47' E 010°05'12010.0
2014-Apr-18 18:33N 58°10' E 006°22'1110.8
2014-Apr-18 17:33N 58°17' E 006°07'1111.4
2014-Apr-18 16:33N 58°25' E 005°50'1111.4
2014-Apr-18 15:33N 58°33' E 005°36'1212.4
2014-Apr-18 14:33N 58°45' E 005°27'1211.7
2014-Apr-18 13:33N 58°55' E 005°35'0 0.2
2014-Apr-18 12:33N 58°55' E 005°35'0 0.0
2014-Apr-18 11:33N 58°55' E 005°35'1 1.2
2014-Apr-18 10:33N 58°56' E 005°34'1211.8
2014-Apr-18 09:34N 59°07' E 005°26'1311.8
2014-Apr-18 08:27N 59°20' E 005°19'8 6.5
2014-Apr-18 07:13N 59°27' E 005°13'  
2014-Apr-15 12:34N 59°25' E 005°14'5 5.0
2014-Apr-15 11:33N 59°20' E 005°18'6 6.0
2014-Apr-15 10:34N 59°14' E 005°21'1110.9
2014-Apr-15 09:34N 59°05' E 005°32'1010.1
2014-Apr-15 08:34N 58°55' E 005°35'0 0.0
2014-Apr-15 07:30N 58°55' E 005°35'0 0.0
2014-Apr-15 06:33N 58°55' E 005°35'0 0.0
2014-Apr-15 05:33N 58°55' E 005°35'10 4.8
2014-Apr-15 03:33N 58°47' E 005°26'10 9.7
2014-Apr-15 02:32N 58°38' E 005°34'9 9.2
2014-Apr-15 01:34N 58°30' E 005°42'9 8.9
2014-Apr-15 00:34N 58°24' E 005°55'8 8.5
2014-Apr-14 23:34N 58°20' E 006°09'9 9.0
2014-Apr-14 22:34N 58°15' E 006°24'107 8.2
2014-Apr-14 09:33N 57°59' E 009°44'1111.2
2014-Apr-14 08:33N 57°58' E 010°05'1111.0
2014-Apr-14 07:33N 57°56' E 010°26'1010.1
2014-Apr-14 06:33N 57°53' E 010°44'1111.0
2014-Apr-14 05:33N 57°46' E 010°60'9113.0
2014-Apr-13 22:33N 56°27' E 012°22'1111.4
2014-Apr-13 21:33N 56°16' E 012°26'1111.1
2014-Apr-13 20:33N 56°06' E 012°35'9 9.0
2014-Apr-13 19:33N 55°58' E 012°43'1110.6
2014-Apr-13 18:33N 55°47' E 012°47'1110.6
2014-Apr-13 17:33N 55°39' E 012°58'2 1.9
2014-Apr-13 16:32N 55°37' E 013°00'2 2.2
2014-Apr-13 15:33N 55°38' E 012°56'9 9.2
2014-Apr-13 14:33N 55°31' E 012°45'1010.0
2014-Apr-13 13:33N 55°22' E 012°41'9 9.0
2014-Apr-13 12:33N 55°16' E 012°53'1211.5
2014-Apr-13 11:33N 55°16' E 013°13'1211.7
2014-Apr-13 10:33N 55°15' E 013°34'1211.7
2014-Apr-13 09:33N 55°15' E 013°54'1211.8
2014-Apr-13 08:33N 55°14' E 014°15'1111.5
2014-Apr-13 07:33N 55°22' E 014°30'1111.5
2014-Apr-13 06:33N 55°29' E 014°46'  

Dump ship's entire track history

sailing weather and tide predictions

Baltic Betina — 9HDW8 — position and weather